Regional Weather Roundup
Issued by NWS

Home | Current Version | Previous Version | Graphics & Text | Print | Product List | Glossary On
Versions: 1 2 3 4 5 6 7 8 9 10 11 12 13 14 15 16 17 18 19 20 21 22 23 24 25 26 27 28 29 30 31 32 33 34 35 36 37 38 39 40 41 42 43 44 45 46 47 48 49 50
000
ASUS43 KLMK 231210
RWRKY
KENTUCKY REGIONAL WEATHER ROUNDUP
NATIONAL WEATHER SERVICE LOUISVILLE KY
800 AM EDT MON OCT 23 2017

NOTE "FAIR" INDICATES FEW OR NO CLOUDS BELOW 12,000 FEET
WITH NO SIGNIFICANT WEATHER AND/OR OBSTRUCTIONS TO VISIBILITY.

KYZ001>023-026-027-061>063-070>075-231300-
WESTERN AND SOUTH CENTRAL KENTUCKY

CITY           SKY/WX    TMP DP  RH WIND       PRES   REMARKS
PADUCAH        CLOUDY    53  50  89 W12G18    29.87R
HENDERSON      NOT AVBL
OWENSBORO      LGT RAIN  57  55  93 W21G26    29.82R FOG
HOPKINSVILLE   CLOUDY    56  56 100 W9        29.83F
BOWLING GREEN  RAIN      63  63 100 E9        29.79F FOG
GLASGOW        RAIN      60  60 100 CALM      29.83F
$$

KYZ024-025-028>034-038-045-046-053-231300-
NORTH CENTRAL KENTUCKY

CITY           SKY/WX    TMP DP  RH WIND       PRES   REMARKS
LOUISVILLE/SDF RAIN      62  60  93 SE6       29.83R FOG
LOUISVILLE/LOU LGT RAIN  61  61 100 E5        29.83F FOG
FORT KNOX      RAIN      63  63 100 SW3       29.82S
$$

KYZ035>037-039>044-047>052-055>060-089>105-231300-
NORTHEAST KENTUCKY

CITY           SKY/WX    TMP DP  RH WIND       PRES   REMARKS
LEXINGTON      LGT RAIN  64  58  80 E13       29.82F
COVINGTON      LGT RAIN  63  58  83 SE10      29.84F
FRANKFORT      CLOUDY    63  58  83 SE6       29.81F
$$

KYZ054-064>069-076>088-106>120-231300-
SOUTHEAST KENTUCKY

CITY           SKY/WX    TMP DP  RH WIND       PRES   REMARKS
JACKSON        CLOUDY    65  56  72 VRB6      29.90F
LONDON         LGT RAIN  64  60  87 SE5       29.86F
SOMERSET       DRIZZLE   61  59  94 CALM      29.84F
MIDDLESBORO    LGT RAIN  67  60  80 CALM      29.90F
MONTICELLO     LGT RAIN  65  60  84 VRB6      29.84F
$$





USA.gov is the U.S. government's official web portal to all federal, state and local government web resources and services.